Home   Weather   Moose Jaw   Past weeks
Flag for Canada

Past Weather in Moose Jaw, Saskatchewan, Canada — Yesterday and Last 2 Weeks

Now
37 °F

Scattered showers. Low clouds.


Feels Like: 31 °F
Forecast: N/A
Wind: 9 mph from West

Location: Moose Jaw

Current Time: Oct 23, 2019 at 5:39:14 pm

Latest Report: Oct 23, 2019 at 4:19 pm


Visibility: 15 mi

Pressure: 30.29 "Hg (28.26 "Hg at 560m altitude)

Humidity: 81%

Dew Point: 32 °F

Location of Moose JawLocation

Past Weather in Moose Jaw — Graph

°F

Moose Jaw Temperature Yesterday

Maximum temperature yesterday: 45 °F (at 2:00 pm)
Minimum temperature yesterday: 19 °F (at 4:00 am)
Average temperature yesterday: 30 °F

High & Low Weather Summary for the Past Weeks

 TemperatureHumidityPressure
High63 °F (Oct 17, 4:00 pm)100% (Oct 15, 9:00 am)30.52 "Hg (Oct 15, 9:00 am)
Low16 °F (Oct 10, 4:00 am)36% (Oct 11, 4:00 pm)29.40 "Hg (Oct 18, 4:00 am)
Average37 °F69%30.04 "Hg
* Reported Oct 9 4:00 am — Oct 23 4:19 pm, Moose Jaw. Weather by CustomWeather, © 2019

Note: Actual official high and low records may vary slightly from our data, if they occured in-between our weather recording intervals... More about our weather records

Advertising

Moose Jaw Weather History for the Previous 24 Hours

Scroll right to see more
 ConditionsComfort  
Time TempWeatherWind HumidityBarometerVisibility
4:19 pm
Wed, Oct 23
37 °FScattered showers. Low clouds.9 mph81%30.29 "Hg15 mi
4:00 pm37 °FScattered showers. Low clouds.8 mph81%30.28 "Hg15 mi
3:35 pm37 °FSprinkles. Low clouds.10 mph81%30.27 "Hg15 mi
3:00 pm39 °FOvercast.10 mph65%30.27 "Hg15 mi
2:00 pm39 °FMostly cloudy.10 mph61%30.25 "Hg15 mi
1:00 pm43 °FMostly cloudy.13 mph46%30.24 "Hg15 mi
12:00 pm41 °FCloudy.10 mph53%30.24 "Hg15 mi
11:00 am39 °FPartly sunny.10 mph56%30.24 "Hg15 mi
10:00 am34 °FOvercast.7 mph81%30.23 "Hg15 mi
9:00 am27 °FOvercast.2 mph86%30.22 "Hg15 mi
8:00 am23 °FOvercast.3 mph86%30.19 "Hg15 mi
7:00 am21 °FPassing clouds.6 mph93%30.18 "Hg15 mi
6:00 am21 °FOvercast.6 mph86%30.17 "Hg15 mi
5:00 am19 °FOvercast.6 mph93%30.15 "Hg15 mi
4:00 am21 °FPassing clouds.9 mph86%30.12 "Hg15 mi
5:00 pm
Tue, Oct 22
43 °FOvercast.13 mph49%29.85 "Hg15 mi
Weather by CustomWeather, © 2019

See weather overview